Volver al catálogo

CHECKMATE 6

ActivoMilitarPO
NORAD 56165·PAYLOAD·🇺🇸 United States

Lanzado Apr 2, 2023 desde Vandenberg Space Force Base

Loading…

Próximos Pases (próximas 24 horas)

TLE

ActualizadoSource: Space-Track

Época: Sep 14, 2026, 11:39 UTC

1 56165U 23050D   26257.48552000  .00000060  00000-0  40460-4 0  9993
2 56165  81.0084 345.8881 0019701  65.1387 295.1816 13.88751637174486

Sigue CHECKMATE 6 en tiempo real con AllMySat

Download on the App Store